Home > Weather > Choloma > Past weeks

Flag for Honduras Past Weather in Choloma, Honduras — Yesterday and Last 2 Weeks

Now
82 °F

Passing clouds.


Feels Like: 94 °F
Forecast: 75 / 86 °F
Wind: 2 mph from Northwest

Location: La Mesa San Pedro Sula

Current Time: Aug 27, 2016 at 11:09:13 PM

Latest Report: Aug 27, 2016 at 10:00 PM


Visibility: N/A

Pressure: 29.92 "Hg

Humidity: 94%

Dew Point: 81 °F

Location of CholomaLocation

Past Weather in Choloma — Graph

°F

Choloma Temperature Yesterday

Maximum temperature yesterday: 91 °F (at 12:00 PM)
Minimum temperature yesterday: 75 °F (at 12:00 AM)
Average temperature yesterday: 82 °F

High & Low Weather Summary for the Past Weeks

 TemperatureHumidityPressure
High95 °F (Aug 13, 2:00 PM)100% (Aug 13, 12:00 AM)30.12 "Hg (Aug 13, 12:00 AM)
Low70 °F (Aug 17, 1:00 AM)47% (Aug 21, 1:00 PM)29.71 "Hg (Aug 13, 4:00 PM)
Average82 °F88%29.90 "Hg
* Reported Aug 12 10:00 PM — Aug 27 10:00 PM, Choloma, Weather by CustomWeather, © 2016

Note: Actual official high and low records may vary slightly from our data, if they occured in-between our weather recording intervals... More about our weather records

Advertising

Choloma Weather History for the Previous 24 Hours

Scroll right to see more
 ConditionsComfort  
Time TempWeatherWind HumidityBarometerVisibility
10:00 PM
Sat, Aug 27
82 °FPassing clouds.2 mph94%29.92 "HgN/A
9:00 PM82 °FPassing clouds.3 mph94%29.89 "HgN/A
8:00 PM82 °FPassing clouds.9 mph94%29.86 "HgN/A
7:00 PM84 °FPassing clouds.12 mph84%29.83 "HgN/A
6:00 PM86 °FBroken clouds.13 mph79%29.80 "HgN/A
5:00 PM90 °FPartly sunny.14 mph67%29.77 "HgN/A
4:00 PM91 °FPartly sunny.12 mph67%29.77 "HgN/A
3:00 PM93 °FBroken clouds.10 mph63%29.77 "HgN/A
2:00 PM93 °FBroken clouds.9 mph63%29.80 "HgN/A
1:00 PM91 °FBroken clouds.6 mph67%29.83 "HgN/A
12:00 PM91 °FBroken clouds.2 mph63%29.86 "HgN/A
11:00 AM72 °FBroken clouds.No wind100%29.89 "HgN/A
10:00 AM86 °FPartly sunny.5 mph79%29.92 "HgN/A
9:00 AM82 °FBroken clouds.7 mph84%29.92 "HgN/A
8:00 AM81 °FPartly sunny.2 mph89%29.89 "HgN/A
7:00 AM77 °FPartly sunny.2 mph94%29.86 "HgN/A
6:00 AM75 °FScattered clouds.6 mph100%29.86 "HgN/A
4:00 AM77 °FPassing clouds.No wind100%29.86 "HgN/A
3:00 AM77 °FPassing clouds.No wind100%29.86 "HgN/A
2:00 AM79 °FPassing clouds.5 mph89%29.86 "HgN/A
1:00 AM79 °FPassing clouds.No wind89%29.89 "HgN/A
12:00 AM79 °FPassing clouds.5 mph84%29.92 "HgN/A
11:00 PM
Fri, Aug 26
79 °FPassing clouds.5 mph84%29.92 "HgN/A
Weather by CustomWeather, © 2016

See weather overviewHow to use our weather pages